Exeter, United Kingdom

4:29 AM GMT on February 24, 2018 (GMT +0000)
Exeter

Weather History for EGTE - October, 2012

Change the Weather History Date:

Thursday, October 4, 2012

  Actual Average Record
Temperature  
Mean Temperature 50 °F -  
Max Temperature 62 °F 57 °F 69 °F (2011)
Min Temperature 37 °F 44 °F 37 °F (2008)
Degree Days  
Heating Degree Days 16    
Moisture  
Dew Point 46 °F    
Average Humidity 79    
Maximum Humidity 100    
Minimum Humidity 51    
Precipitation  
Precipitation 0.24 in - - ()
Sea Level Pressure  
Sea Level Pressure 29.78 in    
Wind  
Wind Speed 6 mph ()    
Max Wind Speed 20 mph    
Max Gust Speed -    
Visibility 6.2 miles    
Events Rain    
Averages and records for this station are not official NWS values.
T = Trace of Precipitation, MM = Missing Value Source: Averaged Metar Reports

Daily Weather History Graph

Daily Weather History Graph

Search for Another Location

Airport or City:

Trip Planner

Search our weather history database for the weather conditions in past years. The results will help you decide how hot, cold, wet, or windy it might be!

Date:

Astronomy

Oct. 04, 2012 Rise Set
Actual Time 7:19 AM BST 6:44 PM BST
Civil Twilight 6:46 AM BST 7:17 PM BST
Nautical Twilight 6:08 AM BST 7:55 PM BST
Astronomical Twilight 5:29 AM BST 8:33 PM BST
Moon 8:39 PM BST (10/4) 11:52 AM BST (10/4)
Length of Visible Light 12h 30m
Length of Day
11h 25m
Waning Gibbous, 83% of the Moon is Illuminated
Oct 4
Waning Gibbous
Oct 8
Last Quarter
Oct 15
New
Oct 22
First Quarter
Oct 29
Full

Hourly Weather History & Observations

Time (BST) Temp. Windchill Dew Point Humidity Pressure Visibility Wind Dir Wind Speed Gust Speed Precip Events Conditions
12:20 AM 51.8 °F - 48.2 °F 88% 29.68 in 6.2 mi Variable 2.3 mph - N/A   Partly Cloudy
12:50 AM 47 °F - 45 °F 89%  in - Calm Calm - -  
12:50 AM 50.0 °F - 46.4 °F 87% 29.68 in 6.2 mi South 5.8 mph - N/A   Partly Cloudy
1:20 AM 50.0 °F - 46.4 °F 87% 29.68 in 6.2 mi SSW 3.5 mph - N/A   Partly Cloudy
1:50 AM 48.2 °F - 46.4 °F 93% 29.68 in - SSW 4.6 mph - N/A   Clear
4:50 AM 42.8 °F - 41.0 °F 93% 29.71 in - Variable 1.2 mph - N/A   Clear
5:20 AM 41.0 °F - 41.0 °F 100% 29.71 in - Variable 1.2 mph - N/A   Clear
5:50 AM 41.0 °F - 39.2 °F 93% 29.71 in - Variable 1.2 mph - N/A   Clear
6:20 AM 39.2 °F - 39.2 °F 100% 29.74 in 6.2 mi Calm Calm - N/A   Partly Cloudy
6:50 AM 37 °F - 37 °F 100%  in - ESE 2.3 mph - -  
6:50 AM 39.2 °F 37.0 °F 37.4 °F 93% 29.74 in 6.2 mi Variable 3.5 mph - N/A   Partly Cloudy
7:20 AM 39.2 °F - 37.4 °F 93% 29.74 in 6.2 mi Variable 2.3 mph - N/A   Partly Cloudy
7:50 AM 39.2 °F - 39.2 °F 100% 29.74 in 6.2 mi Variable 2.3 mph - N/A   Partly Cloudy
8:20 AM 39.2 °F - 39.2 °F 100% 29.77 in 6.2 mi Variable 2.3 mph - N/A   Partly Cloudy
9:20 AM 48.2 °F - 46.4 °F 93% 29.77 in 6.2 mi South 4.6 mph - N/A   Partly Cloudy
9:50 AM 54 °F - 47 °F 72%  in - SW 8.1 mph - -  
9:50 AM 51.8 °F - 46.4 °F 82% 29.80 in 6.2 mi SSW 6.9 mph - N/A   Partly Cloudy
10:20 AM 55.4 °F - 48.2 °F 77% 29.80 in 6.2 mi SW 9.2 mph - N/A   Partly Cloudy
10:50 AM 53.6 °F - 48.2 °F 82% 29.83 in 6.2 mi WSW 11.5 mph - N/A   Scattered Clouds
11:20 AM 55.4 °F - 48.2 °F 77% 29.83 in 6.2 mi WSW 6.9 mph - N/A   Partly Cloudy
11:50 AM 57.2 °F - 46.4 °F 67% 29.83 in 6.2 mi WSW 12.7 mph - N/A   Scattered Clouds
12:20 PM 57.2 °F - 46.4 °F 67% 29.83 in 6.2 mi West 12.7 mph - N/A   Scattered Clouds
12:50 PM 62 °F - 49 °F 53%  in - WSW 12.7 mph - -  
12:50 PM 59.0 °F - 48.2 °F 67% 29.83 in 6.2 mi WSW 12.7 mph - N/A   Scattered Clouds
1:20 PM 59.0 °F - 46.4 °F 63% 29.86 in 6.2 mi WSW 11.5 mph - N/A   Scattered Clouds
1:50 PM 59.0 °F - 46.4 °F 63% 29.86 in 6.2 mi WSW 13.8 mph - N/A   Partly Cloudy
2:20 PM 60.8 °F - 46.4 °F 59% 29.83 in 6.2 mi WSW 13.8 mph - N/A   Partly Cloudy
2:50 PM 60.8 °F - 46.4 °F 59% 29.83 in 6.2 mi SW 11.5 mph - N/A   Partly Cloudy
3:20 PM 60.8 °F - 46.4 °F 59% 29.83 in 6.2 mi SSW 12.7 mph - N/A   Partly Cloudy
3:50 PM 58 °F - 45 °F 51%  in - SW 11.5 mph - -  
3:50 PM 60.8 °F - 46.4 °F 59% 29.83 in 6.2 mi SW 11.5 mph - N/A   Scattered Clouds
4:20 PM 59.0 °F - 46.4 °F 63% 29.83 in 6.2 mi SSW 15.0 mph - N/A   Scattered Clouds
4:50 PM 59.0 °F - 42.8 °F 55% 29.83 in 6.2 mi SSW 12.7 mph - N/A   Scattered Clouds
5:20 PM 57.2 °F - 44.6 °F 63% 29.83 in 6.2 mi SSW 15.0 mph - N/A   Partly Cloudy
5:50 PM 57.2 °F - 46.4 °F 67% 29.83 in 6.2 mi SSW 11.5 mph - N/A   Partly Cloudy
6:20 PM 55.4 °F - 46.4 °F 72% 29.83 in 6.2 mi SSW 10.4 mph - N/A   Partly Cloudy
6:50 PM 54 °F - 47 °F 72%  in - South 4.6 mph - -  
6:50 PM 55.4 °F - 46.4 °F 72% 29.80 in 6.2 mi South 6.9 mph - N/A   Partly Cloudy
7:20 PM 55.4 °F - 48.2 °F 77% 29.83 in 6.2 mi South 6.9 mph - N/A   Partly Cloudy
7:50 PM 55.4 °F - 48.2 °F 77% 29.80 in 6.2 mi South 10.4 mph - N/A Rain Light Rain
8:20 PM 55.4 °F - 50.0 °F 82% 29.80 in 6.2 mi South 10.4 mph - N/A Rain Light Rain
8:50 PM 55.4 °F - 50.0 °F 82% 29.80 in 6.2 mi South 12.7 mph - N/A Rain Light Rain
9:20 PM 53.6 °F - 50.0 °F 88% 29.77 in 6.2 mi South 12.7 mph - N/A Rain Light Rain
9:50 PM 55 °F - 52 °F 85%  in - South 5.8 mph - -  
9:50 PM 53.6 °F - 50.0 °F 88% 29.74 in 6.2 mi SSE 6.9 mph - N/A Rain Light Rain
10:20 PM 53.6 °F - 51.8 °F 94% 29.74 in 6.2 mi South 15.0 mph - N/A Rain Light Rain
10:50 PM 51.8 °F - 51.8 °F 100% 29.71 in 6.2 mi SSE 8.1 mph - N/A Rain Light Rain
11:20 PM 53.6 °F - 51.8 °F 94% 29.68 in 6.2 mi SSE 9.2 mph - N/A Rain Rain
11:50 PM 55.4 °F - 53.6 °F 94% 29.65 in 6.2 mi South 19.6 mph - N/A Rain Rain